weather.gov     
National Weather Service

Regional Weather Roundup
NWS Homepage
This page is being discontinued on March 12, 2014.
The same data is available at this site. Please update your bookmarks.
Thank you, and we apologize for the inconvenience.
Please send an email to SR-SRH.Webmaster@noaa.gov with any concerns.


Current Version
Previous Version:    01  02  03  04  05  06  07  08  09  10  11  12  13  14  15  16  17  18  19  20  21  22  23  24  25  26  27  28  29  30  
   31  32  33  34  35  36  37  38  39  40  41  42  43  44  45  46  47  48  49  50  
[Printable]
189
ASUS44 KFWD 291215
RWRTX
NORTH TEXAS HOURLY WEATHER ROUNDUP
NATIONAL WEATHER SERVICE FORT WORTH TX
700 AM CDT TUE JUL 29 2014

NOTE: "FAIR" INDICATES FEW OR NO CLOUDS BELOW 12,000 FEET WITH NO
SIGNIFICANT WEATHER AND/OR OBSTRUCTIONS TO VISIBILITY.

TXZ118-119-291300-
DALLAS/FORT WORTH METROPLEX

CITY           SKY/WX    TMP DP  RH WIND       PRES   REMARKS
DFW AIRPORT    CLOUDY    76  61  59 NE5       30.12R
6HR MIN TEMP:  73; 6HR MAX TEMP:  80;

DALLAS LOVE    MOCLDY    76  61  59 NE3       30.12R
6HR MIN TEMP:  75; 6HR MAX TEMP:  81;

FTW MEACHAM    CLOUDY    78  62  57 NE5       30.12R
6HR MIN TEMP:  77; 6HR MAX TEMP:  80;

DAL-EXECUTIVE  MOCLDY    77  61  57 E3        30.12R
6HR MIN TEMP:  76; 6HR MAX TEMP:  83;

FTW-ALLIANCE   CLOUDY    74  63  68 CALM      30.13R
6HR MIN TEMP:  72; 6HR MAX TEMP:  76;

FTW-NAS-JRB    CLOUDY    80  59  48 NE3       30.17R
6HR MIN TEMP:  79; 6HR MAX TEMP:  81;

FTW-SPINKS     MOCLDY    75  63  64 CALM      30.14R
ARLINGTON      CLOUDY    77  61  57 NE3       30.13R
6HR MIN TEMP:  76; 6HR MAX TEMP:  82;

GRAND PRAIRIE  CLEAR     77  59  53 N5        30.13S
MESQUITE       CLEAR     70  61  73 N3        30.12R
LANCASTER      PTCLDY    72  60  65 CALM      30.13R
6HR MIN TEMP:  68; 6HR MAX TEMP:  78;

$$

TXZ091>094-102>105-117-120-121-131>134-291300-
NORTH CENTRAL TEXAS

CITY           SKY/WX    TMP DP  RH WIND       PRES   REMARKS
SHRMAN/DENISON MOCLDY    73  64  73 CALM      30.14R
6HR MIN TEMP:  70; 6HR MAX TEMP:  75;

GAINESVILLE    CLOUDY    71  66  86 N5        30.16R
6HR MIN TEMP:  68; 6HR MAX TEMP:  71;

BOWIE          CLOUDY    71  67  88 CALM      30.15R
6HR MIN TEMP:  70; 6HR MAX TEMP:  72;

BRIDGEPORT     CLOUDY    73  63  71 E3        30.15S
6HR MIN TEMP:  70; 6HR MAX TEMP:  73;

DECATUR        CLOUDY    72  63  72 E3        30.14S
6HR MIN TEMP:  72; 6HR MAX TEMP:  73;

DENTON         CLOUDY    71  66  84 CALM      30.13R
6HR MIN TEMP:  68; 6HR MAX TEMP:  71;

MCKINNEY       MOCLDY    70  63  78 CALM      30.12R
6HR MIN TEMP:  66; 6HR MAX TEMP:  72;

GREENVILLE     MOCLDY    73  61  64 CALM      30.13R
ROCKWALL       MOCLDY    71  64  77 NE3       30.11R
6HR MIN TEMP:  70; 6HR MAX TEMP:  73;

TERRELL        MOCLDY    72  64  76 CALM      30.12R
6HR MIN TEMP:  71; 6HR MAX TEMP:  78;

WAXAHACHIE     MOCLDY    74  59  59 NE3       30.14R
6HR MIN TEMP:  74; 6HR MAX TEMP:  78;

CLEBURNE       MOCLDY    77  61  57 NE7       30.14S
GRANBURY       PTCLDY    77  63  61 CALM      30.15R
6HR MIN TEMP:  75; 6HR MAX TEMP:  79;

$$

TXZ083>090-098>101-113>116-127>130-139>142-154-155-291300-
WESTERN NORTH TEXAS

CITY           SKY/WX    TMP DP  RH WIND       PRES   REMARKS
WICHITA FALLS  CLOUDY    73  68  84 CALM      30.14R
6HR MIN TEMP:  72; 6HR MAX TEMP:  73;

WF-KICKAPOO    CLOUDY    73  68  84 NE6       30.15S
6HR MIN TEMP:  73; 6HR MAX TEMP:  74;

VERNON         CLOUDY    73  70  90 CALM      30.17S
6HR MIN TEMP:  70; 6HR MAX TEMP:  80;

ABILENE          N/A     72  61  68 MISG      30.16S
ABILENE-DYESS  CLEAR     72  61  67 E5        30.16R
6HR MIN TEMP:  71; 6HR MAX TEMP:  78;

BRECKENRIDGE   CLOUDY    76  62  62 E3        30.15S HAZE
6HR MIN TEMP:  76; 6HR MAX TEMP:  77;

GRAHAM         RAIN      73  64  73 SE3       30.13S
6HR MIN TEMP:  72; 6HR MAX TEMP:  74;

MINERAL WELLS  CLOUDY    75  62  64 NE5       30.14R
6HR MIN TEMP:  74; 6HR MAX TEMP:  76;

STEPHENVILLE   MOCLDY    74  62  67 CALM      30.17R
6HR MIN TEMP:  73; 6HR MAX TEMP:  75;

COMANCHE       PTCLDY    71  63  76 CALM      30.15S
6HR MIN TEMP:  70; 6HR MAX TEMP:  74;

BROWNWOOD      PTCLDY    68  64  88 CALM      30.15R
COLEMAN        CLEAR     69  62  78 NE5       30.16R
6HR MIN TEMP:  69; 6HR MAX TEMP:  76;

BRADY          CLEAR     72  68  88 E7        30.14S
$$

TXZ143>147-156>162-174-175-291300-
CENTRAL TEXAS

CITY           SKY/WX    TMP DP  RH WIND       PRES   REMARKS
WACO           PTCLDY    74  68  81 N3        30.11R
6HR MIN TEMP:  73; 6HR MAX TEMP:  76;

WACO-TSTC      CLEAR     72  68  88 NE5       30.11
WACO-MCGREGOR  MOCLDY    73  66  78 N5        30.13R
6HR MIN TEMP:  73; 6HR MAX TEMP:  75;

HILLSBORO      PTCLDY    74  61  63 NE8       30.12R
6HR MIN TEMP:  74; 6HR MAX TEMP:  76;

CORSICANA      MOCLDY    72  66  81 NE3       30.12R
6HR MIN TEMP:  72; 6HR MAX TEMP:  75;

MEXIA          MOCLDY    74  69  85 NE3       30.10R
6HR MIN TEMP:  73; 6HR MAX TEMP:  74;

HEARNE         PTCLDY   N/A N/A N/A CALM      30.09R
CAMERON        CLEAR     74  72  91 CALM      30.09R
6HR MIN TEMP:  74; 6HR MAX TEMP:  78;

TEMPLE         CLEAR     72  66  83 N3        30.10S
6HR MIN TEMP:  72; 6HR MAX TEMP:  75;

KILLEEN        PTCLDY    72  70  94 NW5       30.11R
KILLEEN-SKYLRK CLEAR     73  64  73 NE5       30.10R
6HR MIN TEMP:  73; 6HR MAX TEMP:  79;

FORT HOOD      CLEAR     75  70  84 N3        30.11R
6HR MIN TEMP:  75; 6HR MAX TEMP:  79;

GATESVILLE     CLEAR     73  68  83 CALM      30.14R
HAMILTON       PTCLDY    73  65  78 E6        30.15R
6HR MIN TEMP:  72; 6HR MAX TEMP:  76;

LAMPASAS       CLEAR     73  70  89 CALM      30.12R
6HR MIN TEMP:  73; 6HR MAX TEMP:  78;

$$

TXZ095>097-106>112-122>126-135>138-148>153-164>167-291300-
EAST TEXAS

CITY           SKY/WX    TMP DP  RH WIND       PRES   REMARKS
PARIS          CLEAR     68  59  73 N7        30.13R
6HR MIN TEMP:  68; 6HR MAX TEMP:  73;

SULPHUR SPRNGS PTCLDY    71  64  78 CALM      30.14R
6HR MIN TEMP:  71; 6HR MAX TEMP:  76;

CLARKSVILLE    CLEAR     70  63  77 N3        30.13R
6HR MIN TEMP:  69; 6HR MAX TEMP:  75;

MOUNT PLEASANT CLEAR     69  64  83 N5        30.13R
6HR MIN TEMP:  68; 6HR MAX TEMP:  77;

GILMER         PTCLDY    73  66  78 NW3       30.13R
MINEOLA        MOCLDY    72  66  83 CALM      30.12R
TYLER          MOCLDY    75  67  76 NE3       30.11R
6HR MIN TEMP:  75; 6HR MAX TEMP:  76;

LONGVIEW       MOCLDY    75  66  73 CALM      30.10R
6HR MIN TEMP:  74; 6HR MAX TEMP:  77;

MARSHALL       MOCLDY    76  69  80 CALM      30.13R
6HR MIN TEMP:  76; 6HR MAX TEMP:  78;

ATHENS         PTCLDY    72  68  88 N6        30.10R
JACKSONVILLE   PTCLDY    73  69  87 N5        30.13R
HENDERSON      CLOUDY    73  71  95 CALM      30.12R
6HR MIN TEMP:  72; 6HR MAX TEMP:  74;

NACOGDOCHES    MOCLDY    73  70  88 CALM      30.10R
6HR MIN TEMP:  72; 6HR MAX TEMP:  73;

LUFKIN         MOCLDY    77  73  87 CALM      30.09R
6HR MIN TEMP:  75; 6HR MAX TEMP:  77;

$$

SUPPLEMENTAL OBSERVATIONS (CENTRAL)

CITY           SKY/WX    TMP DP  RH WIND       PRES   REMARKS
LAKE TEXOMA      N/A     72  66  83 E1          N/A
CADDO GRASSLND   N/A     64  61  88 VRB1        N/A
PAT MAYSE LAKE   N/A     66  63  88 N2          N/A
GREENVILLE       N/A     72  63  73 NE5         N/A
CEDAR HILL       N/A     75  61  60 NE2         N/A
LAKE LIMESTONE   N/A     73  72  94 CALM        N/A
MCGREGOR         N/A     73  70  88 N5          N/A
$$

SUPPLEMENTAL OBSERVATIONS (WEST)

CITY           SKY/WX    TMP DP  RH WIND       PRES   REMARKS
MILLERS CREEK    N/A     72  61  68 CALM        N/A
LBJ GRASSLAND    N/A     72  61  68 SW2         N/A




U.S. Dept. of Commerce
NOAA National Weather Service
1325 East West Highway
Silver Spring, MD 20910
E-mail: w-nws.webmaster@noaa.gov
Page last modified: May 16, 2007
NATIONAL WEATHER SERVICE: for Safety, for Work, for Fun - FOR LIFE